TimeCST,TemperatureF,Dew PointF,Humidity,Sea Level PressureIn,VisibilityMPH,Wind Direction,Wind SpeedMPH,Gust SpeedMPH,PrecipitationIn,Events,Conditions,WindDirDegrees,DateUTC
12:15 AM,62.6,57.2,82,30.09,10.0,SSW,8.1,-,N/A,,Overcast,200,2012-12-03 06:15:00
12:35 AM,62.6,57.2,82,30.08,10.0,SSW,8.1,-,N/A,,Overcast,200,2012-12-03 06:35:00
12:55 AM,62.6,57.2,82,30.08,10.0,South,8.1,-,N/A,,Overcast,190,2012-12-03 06:55:00
1:15 AM,62.6,59.0,88,30.08,10.0,SSW,11.5,-,N/A,,Overcast,200,2012-12-03 07:15:00
1:55 AM,62.6,59.0,88,30.09,10.0,SSW,12.7,-,N/A,,Overcast,200,2012-12-03 07:55:00
2:15 AM,62.6,59.0,88,30.09,10.0,SSW,15.0,-,N/A,,Overcast,200,2012-12-03 08:15:00
2:35 AM,62.6,57.2,82,30.09,10.0,SSW,12.7,-,N/A,,Overcast,200,2012-12-03 08:35:00
2:55 AM,62.6,59.0,88,30.09,10.0,SSW,12.7,-,N/A,,Overcast,200,2012-12-03 08:55:00
3:15 AM,62.6,57.2,82,30.09,10.0,SSW,13.8,-,N/A,,Overcast,200,2012-12-03 09:15:00
3:35 AM,62.6,57.2,82,30.08,10.0,SSW,11.5,-,N/A,,Overcast,200,2012-12-03 09:35:00
3:55 AM,62.6,57.2,82,30.08,10.0,SSW,11.5,-,N/A,,Overcast,200,2012-12-03 09:55:00
4:15 AM,62.6,57.2,82,30.08,10.0,South,13.8,-,N/A,,Overcast,190,2012-12-03 10:15:00
4:35 AM,62.6,57.2,82,30.08,10.0,SSW,9.2,-,N/A,,Overcast,200,2012-12-03 10:35:00
4:55 AM,62.6,57.2,82,30.08,10.0,SSW,16.1,23.0,N/A,,Overcast,200,2012-12-03 10:55:00
5:15 AM,60.8,57.2,88,30.07,10.0,SSW,8.1,-,N/A,,Mostly Cloudy,200,2012-12-03 11:15:00
5:35 AM,60.8,57.2,88,30.07,10.0,South,9.2,-,N/A,,Partly Cloudy,190,2012-12-03 11:35:00
5:55 AM,60.8,55.4,82,30.08,10.0,South,9.2,-,N/A,,Partly Cloudy,190,2012-12-03 11:55:00
6:15 AM,60.8,55.4,82,30.08,10.0,South,10.4,-,N/A,,Clear,190,2012-12-03 12:15:00
6:35 AM,59.0,55.4,88,30.08,10.0,South,8.1,-,N/A,,Partly Cloudy,190,2012-12-03 12:35:00
6:55 AM,59.0,55.4,88,30.08,10.0,South,8.1,-,N/A,,Clear,190,2012-12-03 12:55:00
7:15 AM,59.0,55.4,88,30.08,10.0,South,9.2,-,N/A,,Clear,180,2012-12-03 13:15:00
7:35 AM,60.8,55.4,82,30.08,10.0,South,11.5,-,N/A,,Clear,190,2012-12-03 13:35:00
7:55 AM,60.8,55.4,82,30.08,10.0,South,10.4,-,N/A,,Clear,190,2012-12-03 13:55:00
8:15 AM,60.8,57.2,88,30.08,10.0,South,10.4,17.3,N/A,,Clear,190,2012-12-03 14:15:00
8:35 AM,62.6,57.2,82,30.08,10.0,South,12.7,-,N/A,,Clear,190,2012-12-03 14:35:00
9:15 AM,64.4,57.2,77,30.08,10.0,South,16.1,21.9,N/A,,Mostly Cloudy,190,2012-12-03 15:15:00
9:35 AM,64.4,57.2,77,30.08,10.0,SSW,16.1,-,N/A,,Mostly Cloudy,200,2012-12-03 15:35:00
10:15 AM,66.2,59.0,78,30.08,10.0,SSW,18.4,25.3,N/A,,Partly Cloudy,200,2012-12-03 16:15:00
10:55 AM,66.2,57.2,73,30.07,10.0,SSW,18.4,24.2,N/A,,Partly Cloudy,200,2012-12-03 16:55:00
11:15 AM,68.0,57.2,68,30.05,10.0,SSW,23.0,28.8,N/A,,Clear,200,2012-12-03 17:15:00
11:35 AM,68.0,57.2,68,30.05,10.0,South,21.9,31.1,N/A,,Unknown,190,2012-12-03 17:35:00
12:15 PM,69.8,59.0,68,30.04,10.0,SSW,25.3,32.2,N/A,,Unknown,200,2012-12-03 18:15:00
12:35 PM,68.0,57.2,68,30.04,10.0,SSW,21.9,28.8,N/A,,Unknown,200,2012-12-03 18:35:00
1:15 PM,69.8,57.2,64,30.03,10.0,SSW,26.5,36.8,N/A,,Unknown,200,2012-12-03 19:15:00
1:35 PM,69.8,57.2,64,30.02,10.0,SSW,24.2,33.4,N/A,,Unknown,210,2012-12-03 19:35:00
1:55 PM,68.0,57.2,68,30.02,10.0,South,24.2,28.8,N/A,,Unknown,180,2012-12-03 19:55:00
2:15 PM,66.2,57.2,73,30.02,10.0,South,23.0,32.2,N/A,,Unknown,190,2012-12-03 20:15:00
2:35 PM,66.2,57.2,73,30.01,10.0,SSW,25.3,31.1,N/A,,Unknown,200,2012-12-03 20:35:00
2:55 PM,66.2,57.2,73,30.01,10.0,South,19.6,27.6,N/A,,Unknown,190,2012-12-03 20:55:00
3:15 PM,66.2,57.2,73,30.00,10.0,South,21.9,28.8,N/A,,Unknown,190,2012-12-03 21:15:00
3:35 PM,66.2,57.2,73,30.00,10.0,South,20.7,25.3,N/A,,Unknown,180,2012-12-03 21:35:00
3:55 PM,66.2,55.4,68,30.01,10.0,South,21.9,28.8,N/A,,Unknown,190,2012-12-03 21:55:00
4:15 PM,66.2,55.4,68,30.01,10.0,South,16.1,28.8,N/A,,Unknown,190,2012-12-03 22:15:00
4:35 PM,66.2,57.2,73,30.01,10.0,South,21.9,27.6,N/A,,Unknown,190,2012-12-03 22:35:00
4:55 PM,66.2,55.4,68,30.01,10.0,South,18.4,26.5,N/A,,Unknown,190,2012-12-03 22:55:00
5:15 PM,64.4,55.4,73,30.02,10.0,South,13.8,23.0,N/A,,Unknown,190,2012-12-03 23:15:00
5:35 PM,64.4,57.2,77,30.02,10.0,South,12.7,-,N/A,,Unknown,190,2012-12-03 23:35:00
5:55 PM,62.6,55.4,77,30.02,10.0,South,11.5,-,N/A,,Unknown,190,2012-12-03 23:55:00
6:15 PM,64.4,55.4,73,30.01,10.0,South,13.8,17.3,N/A,,Unknown,190,2012-12-04 00:15:00
6:35 PM,64.4,55.4,73,30.02,10.0,South,9.2,-,N/A,,Unknown,190,2012-12-04 00:35:00
6:55 PM,62.6,55.4,77,30.01,10.0,South,9.2,-,N/A,,Unknown,180,2012-12-04 00:55:00
7:15 PM,62.6,55.4,77,30.01,10.0,SSE,9.2,-,N/A,,Unknown,160,2012-12-04 01:15:00
7:35 PM,62.6,55.4,77,30.03,10.0,SSW,8.1,-,N/A,,Unknown,200,2012-12-04 01:35:00
7:55 PM,60.8,55.4,82,30.03,10.0,South,6.9,-,N/A,,Unknown,190,2012-12-04 01:55:00
8:15 PM,60.8,55.4,82,30.03,10.0,South,8.1,-,N/A,,Unknown,180,2012-12-04 02:15:00
8:35 PM,60.8,55.4,82,30.03,10.0,SSW,9.2,-,N/A,,Unknown,210,2012-12-04 02:35:00
8:55 PM,60.8,55.4,82,30.03,10.0,South,9.2,-,N/A,,Unknown,190,2012-12-04 02:55:00
9:15 PM,60.8,55.4,82,30.03,10.0,South,8.1,-,N/A,,Unknown,190,2012-12-04 03:15:00
9:35 PM,60.8,55.4,82,30.03,10.0,SW,6.9,-,N/A,,Unknown,230,2012-12-04 03:35:00
9:55 PM,62.6,53.6,72,30.03,10.0,South,9.2,-,N/A,,Unknown,190,2012-12-04 03:55:00
10:15 PM,62.6,53.6,72,30.02,10.0,South,12.7,-,N/A,,Unknown,190,2012-12-04 04:15:00
10:35 PM,62.6,53.6,72,30.01,10.0,South,18.4,24.2,N/A,,Unknown,190,2012-12-04 04:35:00
10:55 PM,62.6,53.6,72,30.01,10.0,South,13.8,-,N/A,,Unknown,190,2012-12-04 04:55:00
11:15 PM,62.6,53.6,72,30.01,10.0,South,13.8,-,N/A,,Unknown,190,2012-12-04 05:15:00
11:35 PM,62.6,53.6,72,30.01,10.0,South,15.0,-,N/A,,Unknown,190,2012-12-04 05:35:00
11:55 PM,62.6,53.6,72,30.01,10.0,South,13.8,-,N/A,,Unknown,190,2012-12-04 05:55:00